Showing default

MIDAS 6 (FTV 1169), 574

Orbit data source: Space-Track

MIDAS 6 (FTV 1169), 574 is a payload satellite owned by USAF SSD (US) in LEO that was launched on Thu, 09 May 1963 UTC via an ATLAS AGENA B launch vehicle from the Air Force Western Test Range (AFWTR). Payload-class satellites include a variety of spacecraft equipped with specific instruments for various scientific and technological missions. These include communications satellites like Starlink; space stations such as the ISS; scientific satellites like the Hubble; Earth observation satellites from companies like Planet Labs, Umbra, and HawkEye 360; GPS; miniature CubeSats for education and research; and military/defense satellites.

Loading next visibility...
Identifier
574, 1963-014A
Orbit
LEO
Country
Flag of USUS
Related business
Manufacturer
LMSC
Mission
Spacecraft
Bus & Motor
MIDAS, Unknown motor
Mass
~1,540 kg wet, ~840 kg dry
Launch date (UTC)
1963-05-09 (63 years ago)
Launch vehicle
ATLAS AGENA B
Launch site
Air Force Western Test Range (AFWTR)
Object type
Payload
Rocket body
Debris
Shape & HBR
Unknown
Radar Cross Section
Large (>1 m²)

Expand to show TLE details & history
Last TLE update: 12 hours ago

TLE from 12 hours ago
0 MIDAS 6 (FTV 1169)
1 00574U 63014A   26072.35784590  .00000000  00000-0 -12628-2 0  9990
2 00574  87.3533 204.8130 0031213 209.1051 150.8064  8.65277071209494
Epoch: 2026-03-13T08:35Z
TLE epoch observation values (Epoch: 2026-03-13T08:35:17.885Z)
Latitude
0.00002°
Longitude
-95.00605°
Altitude
3,673.63 km
Speed
6.289 km/s
True Right ascension
13h 39m 15s
True Declination
0° 00' 00"
Sunlit
Object was in full shadow at epoch
Visualization orbit readout
Latitude
Unknown
Longitude
Unknown
Altitude
Unknown
Speed
Unknown
Apparent Right ascension
Unknown
Apparent Declination
Unknown
Sunlit
N/A
Visualization observer readout
Local Sidereal Time
00:53:26
Azimuth
Unknown
Elevation
Unknown
Doppler factor
Unknown
Orbital elements
Apogee altitude
3,673.208 km
Perigee altitude
3,610.656 km
Semi-major axis
10,020.069 km
Eccentricity
0.00312
Inclination
87.3533°
RAAN
204.813°
Arg. of periapsis
209.1051°
True anomaly
150.98027°
Mean anomaly
150.8064°
Eccentric anomaly
150.89339°
Mean motion
2.1639 °/min
Orbital period
166.37 mins
BSTAR
-0.0012628
Loading maneuver chart data...
Computing Atmospheric mass density...

Documentation

Showing up to 5 results
|